STARLINK-5543 (56341 NORAD) Tracking and Keplerian Element Data

This shows tracking and keplerian element data for the satellite.

Feedback or suggestion? Click here.




ElementValue
Catalog56341
NameSTARLINK-5543
Epoch Orbit181
Epoch Day127.00001157
Epoch Year2023
RAAN126.4743
Inclination97.6641
Eccentricity0.0001445
Argument of Perigee89.0665
Mean Anonmoly241.2222
Mean Motion15.68186269
Decay Rate-0.00868314
L11 56341U 23058AA 23127.00001157 -.00868314 00000+0 -86575-2 0 9990
L22 56341 97.6641 126.4743 0001445 89.0665 241.2222 15.68186269 1816



Live tracking and technical data element details for STARLINK-5543 (NORAD 56341). STARLINK-5543 can be tracked NOW for your location showing map with azimuth and elevation plus other details from your city location.







IsCatalogInMostPopularTable: catalog: 56341, numindb: 4
Update: records affected: 1



GetName: 56341 STARLINK-5543

Hit Count: updated at: Wed, 07 Jun 2023 09:10:14 GMT